Regional Weather Roundup
Issued by NWS Northern Indiana

Home | Current Version | Previous Version | Graphics & Text | Print | Product List | Glossary On
Versions: 1 2 3 4 5 6 7 8 9 10 11 12 13 14 15 16 17 18 19 20 21 22 23 24 25 26 27 28 29 30 31 32 33 34 35 36 37 38 39 40 41 42 43 44 45 46 47 48 49 50
000
ASUS43 KIWX 022000
RWRIWX

KIWX WEATHER ROUNDUP
NATIONAL WEATHER SERVICE NORTHERN INDIANA
300 PM EST FRI DEC 02 2016

NOTE: "FAIR" INDICATES FEW OR NO CLOUDS BELOW 12,000 FEET WITH NO
SIGNIFICANT WEATHER AND/OR OBSTRUCTIONS TO VISIBILITY.

* THESE STATIONS ARE NOT UNDER NWS QUALITY CONTROL. THEY ALSO MAY NOT
  REPORT WEATHER SUCH AS PRECIPITATION OR FOG.

INZ001>027-022100-
NORTHERN INDIANA

CITY           SKY/WX    TMP DP  RH WIND       PRES   REMARKS
GARY*          CLOUDY    41  32  70 W9        30.20R
LAPORTE*       CLOUDY    39  38  94 NW6       30.19R
KNOX*          CLOUDY    37  16  41 W8        30.19R
SOUTH BEND     CLOUDY    37  29  72 NW14G20   30.18R
ELKHART*       CLOUDY   N/A N/A N/A NW12      30.17R
GOSHEN         CLOUDY    38  32  79 NW9       30.16R
MONTICELLO*    CLOUDY    38  29  69 NW9       30.20R
WARSAW*        DRIZZLE   36  32  87 W12       30.17R
ANGOLA*        CLOUDY    37  30  75 NW12      30.13R
FORT WAYNE     CLOUDY    40  31  70 W15       30.16R

$$
INZ028>050-022100-
CENTRAL INDIANA

CITY           SKY/WX    TMP DP  RH WIND       PRES   REMARKS
LAFAYETTE      CLOUDY    39  33  79 W13       30.21R
KOKOMO*        LGT RAIN  36  33  89 W14       30.20R
MUNCIE*        CLOUDY    40  29  64 W9        30.19R
INDIANAPOLIS   CLOUDY    40  32  73 W8        30.21R

$$
MIZ043>046-050>051-056>058-064>065-071>073-077>080-022100-
SOUTHWEST LOWER MICHIGAN

CITY           SKY/WX    TMP DP  RH WIND       PRES   REMARKS
BATTLE CREEK   CLOUDY    37  31  78 NW7       30.13R
BENTON HARBOR  CLOUDY    38  26  62 NW8G21    30.18R
COLDWATER*     CLOUDY    38  26  62 W12       30.13R
HILLSDALE*     CLOUDY    36  28  75 NW13      30.10R
HOLLAND        CLOUDY    38  27  64 NW9       30.15R
GRAND RAPIDS   CLOUDY    37  25  61 W14       30.14R
KALAMAZOO      CLOUDY    38  27  64 W13       30.14R
STURGIS*       CLOUDY    38  29  70 NW8       30.14R
THREE RIVERS*  CLOUDY    39  29  68 NW15      30.15R

$$
OHZ001>008-015>018-024>025-022100-
NORTHWEST OHIO

CITY           SKY/WX    TMP DP  RH WIND       PRES   REMARKS
DEFIANCE       CLOUDY    41  31  67 W6        30.14R
FINDLAY        CLOUDY    41  31  67 W18       30.12R
TOLEDO EXPRESS CLOUDY    39  33  79 W14       30.11R
TOLEDO METCALF CLOUDY    39  37  92 NW7       30.12R
LIMA           CLOUDY    39  32  76 W15       30.14R

$$
AND FOR LAKE MICHIGAN COASTAL AND OPEN LAKE BUOY OBSERVATIONS

STATION/POSITION TEMP    WIND        PRES    VSBY  WAVE
                 AIR SEA DIR/SP/G                  HT/PER
                 (F)     (DEG/KT/KT) (MB)    (MI)  (FT/S)
CALUMET HARBOR    40     240/  6/  9 1021.7R
MICHIGAN CITY     39     300/ 14/ 15   N/A
SAINT JOSEPH      39     310/ 13/ 16 1021.7
SOUTH LAKE BUOY   37 49  300/ 14/ 17 1021.3          3/ 6

$$
&&




USA.gov is the U.S. government's official web portal to all federal, state and local government web resources and services.